Weather History for Nagpur Sonegaon, India

Change the Weather History Date:

Thursday, October 27, 2011

  Actual Average Record
Temperature  
Mean Temperature 78 °F -  
Max Temperature 91 °F 87 °F - ()
Min Temperature 66 °F 61 °F - ()
Cooling Degree Days 14    
Growing Degree Days 28 (Base 50)    
Moisture  
Dew Point 58 °F    
Average Humidity 50    
Maximum Humidity 74    
Minimum Humidity 25    
Precipitation  
Precipitation 0.00 in 0.03 in - ()
Sea Level Pressure  
Sea Level Pressure 29.93 in    
Wind  
Wind Speed 3 mph ()    
Max Wind Speed 6 mph    
Max Gust Speed -    
Visibility 2.6 miles    
Events      
T = Trace of Precipitation, MM = Missing Value Source: Averaged Metar Reports

Daily Weather History Graph

Daily Weather History Graph

Search for Another Location

Airport:

Trip Planner

Search our weather history database for the weather conditions in past years. The results will help you decide how hot, cold, wet, or windy it might be!

Date:

Astronomy

Oct. 27, 2011 Rise Set
Actual Time 6:13 AM IST 5:41 PM IST
Civil Twilight 5:51 AM IST 6:03 PM IST
Nautical Twilight 5:25 AM IST 6:30 PM IST
Astronomical Twilight 4:59 AM IST 6:56 PM IST
Moon 6:31 AM IST (10/27) 6:01 PM IST (10/27)
Length of Visible Light 12h 12m
Length of Day
11h 27m
New Moon, 0% of the Moon is Illuminated
Oct 27
New Moon
Nov 2
First Quarter
Nov 11
Full
Nov 18
Last Quarter
Nov 25
New

Hourly Weather History & Observations

Time (IST) Temp. Heat Index Dew Point Humidity Pressure Visibility Wind Dir Wind Speed Gust Speed Precip Events Conditions
12:10 AM 69.8 °F - 57.2 °F 64% 29.95 in 1.2 mi NW 2.3 mph - N/A   Haze
1:10 AM 68.0 °F - 59.0 °F 73% 29.95 in 1.6 mi North 2.3 mph - N/A   Haze
2:10 AM 69.8 °F - 57.2 °F 64% 29.92 in 2.5 mi NW 3.5 mph - N/A   Haze
2:30 AM 68 °F - 61 °F 72% 29.90 in 1 mi NW 3.5 mph - -   Haze
3:10 AM 69.8 °F - 57.2 °F 64% - 2.5 mi NNW 3.5 mph - N/A   Haze
4:10 AM 69.8 °F - 59.0 °F 68% 29.92 in 2.5 mi North 3.5 mph - N/A   Haze
5:10 AM 68.0 °F - 57.2 °F 68% - 2.5 mi North 2.3 mph - N/A   Haze
5:30 AM 68 °F - 62 °F 74% 29.91 in 1 mi NNW 2.3 mph - -   Haze
6:10 AM 66.2 °F - 57.2 °F 73% 29.92 in 1.9 mi North 3.5 mph - N/A   Haze
7:10 AM 68.0 °F - 57.2 °F 68% 10.14 in 1.9 mi Calm Calm - N/A   Haze
8:10 AM 75.2 °F - 60.8 °F 61% 29.98 in 3.1 mi North 2.3 mph - N/A   Haze
8:30 AM 77 °F - 61 °F 48% 29.96 in 2 mi NE 3.5 mph - -   Haze
8:40 AM 77.0 °F - 60.8 °F 57% 30.01 in 3.1 mi NE 3.5 mph - N/A   Haze
9:10 AM 80.6 °F 82.3 °F 64.4 °F 58% 30.01 in 3.1 mi East 2.3 mph - N/A   Haze
10:10 AM 86.0 °F 86.6 °F 62.6 °F 45% 30.01 in 3.1 mi ESE 3.5 mph - N/A   Haze
11:10 AM 89.6 °F 89.5 °F 60.8 °F 38% 29.98 in 3.7 mi ESE 4.6 mph - N/A   Unknown
11:30 AM 88 °F - 60 °F 29% 29.92 in 2 mi East 3.5 mph - -  
1:40 PM 93.2 °F 92.6 °F 59.0 °F 32% 29.92 in 4.3 mi ESE 5.8 mph - N/A   Unknown
2:10 PM 93.2 °F 92.6 °F 59.0 °F 32% 29.89 in - North - - N/A   Clear
2:30 PM 90 °F - 59 °F 26% 29.84 in 2 mi SE 5.8 mph - -  
2:40 PM 93.2 °F 93.3 °F 60.8 °F 34% 29.89 in 4.3 mi ESE 5.8 mph - N/A   Unknown
3:10 PM 93.2 °F 92.6 °F 59.0 °F 32% 29.89 in - North - - N/A   Unknown
3:40 PM 93.2 °F 92.6 °F 59.0 °F 32% 29.89 in 3.7 mi ENE 5.8 mph - N/A   Unknown
4:10 PM 91.4 °F 89.9 °F 57.2 °F 31% 29.89 in - North - - N/A   Unknown
4:40 PM 89.6 °F 88.9 °F 59.0 °F 36% 29.89 in 3.7 mi ENE 3.5 mph - N/A   Unknown
5:30 PM 85 °F - 55 °F 25% 29.85 in 2 mi NE 3.5 mph - -  
5:40 PM 84.2 °F 83.0 °F 55.4 °F 37% 29.89 in 3.7 mi Calm Calm - N/A   Unknown
6:10 PM 80.6 °F 80.8 °F 57.2 °F 45% 29.92 in - North - - N/A   Unknown
7:10 PM 77.0 °F - 57.2 °F 50% 29.92 in 3.1 mi ESE 3.5 mph - N/A   Haze
8:10 PM 75.2 °F - 55.4 °F 50% 29.95 in 3.1 mi ESE 3.5 mph - N/A   Haze
8:30 PM 75 °F - 58 °F 46% 29.93 in 2 mi East 3.5 mph - -   Haze
9:10 PM 75.2 °F - 53.6 °F 47% 29.95 in 3.1 mi East 3.5 mph - N/A   Haze
10:10 PM 73.4 °F - 53.6 °F 50% 29.95 in 3.1 mi Calm Calm - N/A   Haze
11:10 PM 71.6 °F - 55.4 °F 57% 3.07 in 3.1 mi NW 2.3 mph - N/A   Haze
11:30 PM 70 °F - 58 °F 57% 29.94 in 2 mi Calm Calm - -